EN

Hourly Weather Oliinyky

Today, 16 May, Sunday

Time Temperature Precipitation Wind Pressure Humidity
00:00 +16°C° 0 mm 1 mps 747 mmHg 69%
01:00 +15°C° 0 mm 1 mps 747 mmHg 71%
02:00 +15°C° 0 mm 1 mps 747 mmHg 73%
03:00 +15°C° 0 mm 1 mps 747 mmHg 74%
04:00 +15°C° 0 mm 1 mps 747 mmHg 74%
05:00 +15°C° 0 mm 1 mps 747 mmHg 74%
06:00 +18°C° 0 mm 1 mps 748 mmHg 69%
07:00 +19°C° 0 mm 2 mps 748 mmHg 63%
08:00 +21°C° 0 mm 2 mps 748 mmHg 58%
09:00 +23°C° 0 mm 2 mps 748 mmHg 54%
10:00 +24°C° 0 mm 3 mps 747 mmHg 50%
11:00 +26°C° 0 mm 3 mps 747 mmHg 46%
12:00 +26°C° 0 mm 3 mps 747 mmHg 46%
13:00 +27°C° 0 mm 3 mps 746 mmHg 45%
14:00 +27°C° 0 mm 4 mps 746 mmHg 45%
15:00 +27°C° 0 mm 4 mps 746 mmHg 50%
16:00 +26°C° 0 mm 4 mps 745 mmHg 54%
17:00 +26°C° 0 mm 4 mps 745 mmHg 59%
18:00 +23°C° 1 mm 4 mps 744 mmHg 68%
19:00 +21°C° 1 mm 5 mps 744 mmHg 77%
20:00 +19°C° 1 mm 5 mps 744 mmHg 86%
21:00 +19°C° 0.1 mm 4 mps 744 mmHg 86%
22:00 +18°C° 0.1 mm 4 mps 743 mmHg 87%
23:00 +18°C° 0.1 mm 4 mps 743 mmHg 87%

Tomorrow, 17 May, Monday

Time Temperature Precipitation Wind Pressure Humidity
00:00 +17°C° 0 mm 4 mps 742 mmHg 85%
01:00 +17°C° 0 mm 4 mps 742 mmHg 83%
02:00 +15°C° 0 mm 4 mps 742 mmHg 81%
03:00 +15°C° 0 mm 4 mps 742 mmHg 81%
04:00 +15°C° 0 mm 4 mps 741 mmHg 81%
05:00 +14°C° 0 mm 4 mps 741 mmHg 82%
06:00 +16°C° 0 mm 5 mps 741 mmHg 75%
07:00 +19°C° 0 mm 5 mps 741 mmHg 68%
08:00 +21°C° 0 mm 6 mps 741 mmHg 61%
09:00 +22°C° 0 mm 6 mps 741 mmHg 59%
10:00 +24°C° 0 mm 7 mps 741 mmHg 56%
11:00 +26°C° 0 mm 7 mps 741 mmHg 54%
12:00 +27°C° 0 mm 7 mps 741 mmHg 54%
13:00 +28°C° 0 mm 7 mps 741 mmHg 54%
14:00 +28°C° 0 mm 7 mps 741 mmHg 54%
15:00 +27°C° 0 mm 6 mps 741 mmHg 57%
16:00 +27°C° 0 mm 6 mps 741 mmHg 60%
17:00 +26°C° 0 mm 5 mps 741 mmHg 63%
18:00 +23°C° 0 mm 5 mps 741 mmHg 66%
19:00 +22°C° 0 mm 5 mps 742 mmHg 70%
20:00 +20°C° 0 mm 5 mps 742 mmHg 74%
21:00 +19°C° 0 mm 5 mps 742 mmHg 77%
22:00 +17°C° 0 mm 5 mps 742 mmHg 80%
23:00 +16°C° 0 mm 5 mps 742 mmHg 82%

Day after tomorrow, 18 May, Tuesday

Time Temperature Precipitation Wind Pressure Humidity
00:00 +15°C° 0 mm 5 mps 742 mmHg 85%
01:00 +15°C° 0 mm 5 mps 742 mmHg 88%
02:00 +14°C° 0 mm 5 mps 742 mmHg 91%
03:00 +14°C° 0 mm 5 mps 742 mmHg 91%
04:00 +14°C° 0 mm 5 mps 742 mmHg 90%
05:00 +15°C° 0 mm 5 mps 742 mmHg 89%
06:00 +15°C° 0 mm 5 mps 743 mmHg 88%
07:00 +16°C° 0 mm 5 mps 743 mmHg 87%
08:00 +16°C° 0 mm 5 mps 743 mmHg 86%
09:00 +17°C° 0 mm 6 mps 743 mmHg 84%
10:00 +17°C° 0 mm 6 mps 743 mmHg 82%
11:00 +17°C° 0 mm 6 mps 743 mmHg 80%
12:00 +20°C° 0.1 mm 6 mps 743 mmHg 72%
13:00 +21°C° 0.1 mm 7 mps 743 mmHg 65%
14:00 +23°C° 0.1 mm 7 mps 742 mmHg 57%
15:00 +21°C° 0.9 mm 6 mps 742 mmHg 66%
16:00 +20°C° 0.9 mm 6 mps 742 mmHg 74%
17:00 +17°C° 0.9 mm 5 mps 742 mmHg 83%
18:00 +17°C° 1.3 mm 5 mps 742 mmHg 85%
19:00 +16°C° 1.3 mm 5 mps 742 mmHg 88%
20:00 +15°C° 1.3 mm 5 mps 743 mmHg 91%
21:00 +15°C° 0.1 mm 4 mps 743 mmHg 92%
22:00 +14°C° 0.1 mm 4 mps 743 mmHg 93%
23:00 +13°C° 0.1 mm 3 mps 743 mmHg 95%

19 May, Wednesday

Time Temperature Precipitation Wind Pressure Humidity
00:00 +13°C° 0 mm 3 mps 743 mmHg 95%
01:00 +12°C° 0 mm 3 mps 744 mmHg 96%
02:00 +12°C° 0 mm 3 mps 744 mmHg 97%
03:00 +12°C° 0 mm 3 mps 745 mmHg 96%
04:00 +11°C° 0 mm 3 mps 745 mmHg 95%
05:00 +11°C° 0 mm 3 mps 746 mmHg 94%
06:00 +13°C° 0 mm 3 mps 746 mmHg 87%
07:00 +14°C° 0 mm 3 mps 746 mmHg 79%
08:00 +15°C° 0 mm 4 mps 746 mmHg 71%
09:00 +18°C° 0 mm 4 mps 746 mmHg 65%
10:00 +19°C° 0 mm 4 mps 746 mmHg 59%
11:00 +20°C° 0 mm 3 mps 746 mmHg 53%
12:00 +20°C° 0 mm 3 mps 746 mmHg 51%
13:00 +20°C° 0 mm 3 mps 746 mmHg 49%
14:00 +21°C° 0 mm 3 mps 746 mmHg 47%
15:00 +20°C° 0 mm 3 mps 746 mmHg 53%
16:00 +19°C° 0 mm 2 mps 746 mmHg 58%
17:00 +18°C° 0 mm 2 mps 746 mmHg 64%
18:00 +17°C° 0.2 mm 3 mps 746 mmHg 69%
19:00 +16°C° 0.2 mm 3 mps 746 mmHg 75%
20:00 +14°C° 0.2 mm 4 mps 747 mmHg 81%
21:00 +13°C° 0.5 mm 4 mps 747 mmHg 84%
22:00 +13°C° 0.5 mm 3 mps 747 mmHg 88%
23:00 +12°C° 0.5 mm 3 mps 747 mmHg 91%

20 May, Thursday

Time Temperature Precipitation Wind Pressure Humidity
00:00 +12°C° 0 mm 3 mps 747 mmHg 91%
01:00 +13°C° 0 mm 2 mps 748 mmHg 91%
02:00 +12°C° 0 mm 2 mps 748 mmHg 91%
03:00 +12°C° 0 mm 2 mps 748 mmHg 91%
04:00 +12°C° 0 mm 2 mps 748 mmHg 91%
05:00 +10°C° 0 mm 3 mps 748 mmHg 90%
06:00 +12°C° 0 mm 3 mps 749 mmHg 83%
07:00 +13°C° 0 mm 3 mps 749 mmHg 75%
08:00 +16°C° 0 mm 3 mps 749 mmHg 67%
09:00 +17°C° 0 mm 3 mps 749 mmHg 62%
10:00 +18°C° 0 mm 3 mps 749 mmHg 57%
11:00 +19°C° 0 mm 3 mps 749 mmHg 52%
12:00 +19°C° 0 mm 3 mps 749 mmHg 51%
13:00 +20°C° 0 mm 3 mps 749 mmHg 50%
14:00 +20°C° 0 mm 3 mps 749 mmHg 49%
15:00 +20°C° 0 mm 3 mps 749 mmHg 53%
16:00 +19°C° 0 mm 3 mps 749 mmHg 57%
17:00 +19°C° 0 mm 3 mps 749 mmHg 60%
18:00 +18°C° 0 mm 3 mps 749 mmHg 63%
19:00 +17°C° 0 mm 3 mps 749 mmHg 66%
20:00 +16°C° 0 mm 3 mps 749 mmHg 69%
21:00 +16°C° 0 mm 3 mps 749 mmHg 70%
22:00 +15°C° 0 mm 4 mps 749 mmHg 71%
23:00 +14°C° 0 mm 4 mps 748 mmHg 72%

21 May, Friday

Time Temperature Precipitation Wind Pressure Humidity
00:00 +14°C° 0 mm 4 mps 748 mmHg 73%
01:00 +14°C° 0 mm 5 mps 748 mmHg 75%
02:00 +14°C° 0 mm 5 mps 748 mmHg 77%
03:00 +14°C° 0 mm 5 mps 748 mmHg 78%
04:00 +13°C° 0 mm 5 mps 748 mmHg 80%
05:00 +13°C° 0 mm 5 mps 748 mmHg 82%
06:00 +14°C° 0.1 mm 5 mps 748 mmHg 82%
07:00 +14°C° 0.1 mm 5 mps 748 mmHg 82%
08:00 +14°C° 0.1 mm 5 mps 748 mmHg 82%
09:00 +15°C° 0.3 mm 6 mps 748 mmHg 82%
10:00 +16°C° 0.3 mm 6 mps 748 mmHg 82%
11:00 +16°C° 0.3 mm 6 mps 748 mmHg 82%
12:00 +17°C° 0 mm 6 mps 748 mmHg 80%
13:00 +19°C° 0 mm 6 mps 747 mmHg 77%
14:00 +19°C° 0 mm 6 mps 747 mmHg 75%
15:00 +17°C° 0 mm 6 mps 747 mmHg 79%
16:00 +16°C° 0 mm 5 mps 748 mmHg 82%
17:00 +15°C° 0 mm 5 mps 748 mmHg 85%
18:00 +15°C° 0 mm 4 mps 748 mmHg 87%
19:00 +14°C° 0 mm 4 mps 748 mmHg 89%
20:00 +14°C° 0 mm 4 mps 748 mmHg 90%
21:00 +13°C° 0 mm 4 mps 748 mmHg 91%
22:00 +13°C° 0 mm 4 mps 748 mmHg 92%
23:00 +12°C° 0 mm 4 mps 748 mmHg 93%
Show more

We Need Your Consent

Meteoprog and our Service Providers may store and access personal data such as cookies, device identifiers or other similar technologies on your device and process such data to personalise content and ads, as well as provide social media features and to analyse the traffic.

  • Store and/or access information on your device

    Cookies, device identifiers or other information can be stored or accessed on your device for the purposes indicated above.

  • Personalised ads and content, ad and content measurement, audience insights, and products development

    Ads and content can be personalised based on a profile. More data can be added to better personalise ads and content. Ad and content performance can be measured. Insights about the audience who saw the ads and content can be derived. Such data can be used to develop or improve user’s experience, systems and software.

By clicking ‘I Agree’ you will allow the use of indicated cookies, device identifiers, web beacons or other similar technologies. Your settings can be changed in the browser on your device.

For certain purposes, legitimate interests may be relied on, rather than consent. You can read more about this in our Privacy and Cookie Policy.